Barakaldo, Spain
Current Conditions -  °F | °C
As of 4:00 PM on Thursday 23 Oct 2014 (Local Time) from LEBB Reporting Station
Clear Clear  
Wind Chill: 79°   Ceiling: Unl
Heat Index: 79°   Visibility: 6mi
Dew Point: 21°   Wind: 2mph
Humidity: 12%   Direction: NA
Pressure: 30.21"   Gusts: NA
Location:  43.3°N, 3°W
Report Text: LEBB 231400Z VRB02KT CAVOK 26/M06 Q1023 NOSIG
Loading
Personal Weather Stations






























Interactive Weather Map
Tropical Storm Tracking
New forecast layout! Learn more

10-Day Weather Forecast

Advertisements
Track Severe Weather on mobile